Time,TemperatureF,DewpointF,PressureIn,WindDirection,WindDirectionDegrees,WindSpeedMPH,WindSpeedGustMPH,Humidity,HourlyPrecipIn,Conditions,Clouds,dailyrainin,SoftwareType,DateUTC
2013-07-11 00:00:00,63.1,37.8,30.03,NE,52,0.0,2.2,39,0.00,,---,0.00,VWS V14.01,2013-07-11 07:00:00,
2013-07-11 00:06:00,63.1,37.8,30.03,NE,52,0.0,0.0,39,0.00,,---,0.00,VWS V14.01,2013-07-11 07:06:00,
2013-07-11 00:12:00,63.3,38.0,30.03,NE,52,0.0,0.0,39,0.00,,---,0.00,VWS V14.01,2013-07-11 07:12:00,
2013-07-11 00:17:00,63.3,38.0,30.03,NE,52,0.0,0.0,39,0.00,,---,0.00,VWS V14.01,2013-07-11 07:17:00,
2013-07-11 00:22:00,63.3,38.0,30.03,SSW,195,2.7,3.1,39,0.00,,---,0.00,VWS V14.01,2013-07-11 07:22:00,
2013-07-11 00:28:00,63.3,38.0,30.03,SSW,195,0.0,0.0,39,0.00,,---,0.00,VWS V14.01,2013-07-11 07:28:00,
2013-07-11 00:33:00,63.3,38.9,30.03,SSW,195,0.0,0.0,40,0.00,,---,0.00,VWS V14.01,2013-07-11 07:33:00,
2013-07-11 00:39:00,63.0,38.6,30.03,WNW,299,0.0,2.7,40,0.00,,---,0.00,VWS V14.01,2013-07-11 07:39:00,
2013-07-11 00:44:00,62.8,38.4,30.03,ENE,71,2.2,2.7,40,0.00,,---,0.00,VWS V14.01,2013-07-11 07:44:00,
2013-07-11 00:50:00,62.8,38.4,30.03,ENE,71,0.0,0.0,40,0.00,,---,0.00,VWS V14.01,2013-07-11 07:50:00,
2013-07-11 00:56:00,63.0,38.6,30.03,East,101,0.0,0.0,40,0.00,,---,0.00,VWS V14.01,2013-07-11 07:56:00,
2013-07-11 01:02:00,63.0,38.6,30.03,East,101,0.0,0.0,40,0.00,,---,0.00,VWS V14.01,2013-07-11 08:02:00,
2013-07-11 01:07:00,62.8,38.4,30.03,North,353,0.0,0.0,40,0.00,,---,0.00,VWS V14.01,2013-07-11 08:07:00,
2013-07-11 01:13:00,62.2,38.0,30.03,NNW,331,0.0,0.0,40,0.00,,---,0.00,VWS V14.01,2013-07-11 08:13:00,
2013-07-11 01:18:00,62.2,38.0,30.03,NNW,331,0.0,0.0,40,0.00,,---,0.00,VWS V14.01,2013-07-11 08:18:00,
2013-07-11 01:24:00,62.2,38.0,30.03,NNW,331,0.0,0.0,40,0.00,,---,0.00,VWS V14.01,2013-07-11 08:24:00,
2013-07-11 01:29:00,62.4,39.0,30.03,NNW,331,0.0,0.0,42,0.00,,---,0.00,VWS V14.01,2013-07-11 08:29:00,
2013-07-11 01:35:00,62.6,38.3,30.03,NNW,331,0.0,0.0,40,0.00,,---,0.00,VWS V14.01,2013-07-11 08:35:00,
2013-07-11 01:40:00,62.8,38.4,30.03,NNW,331,0.0,0.0,40,0.00,,---,0.00,VWS V14.01,2013-07-11 08:40:00,
2013-07-11 01:46:00,62.8,38.4,30.03,NNW,331,0.0,0.0,40,0.00,,---,0.00,VWS V14.01,2013-07-11 08:46:00,
2013-07-11 01:52:00,62.8,38.4,30.03,NNW,331,0.0,0.0,40,0.00,,---,0.00,VWS V14.01,2013-07-11 08:52:00,
2013-07-11 01:58:00,62.6,38.3,30.03,North,10,0.0,0.0,40,0.00,,---,0.00,VWS V14.01,2013-07-11 08:58:00,
2013-07-11 02:03:00,62.4,39.0,30.03,North,10,0.0,0.0,42,0.00,,---,0.00,VWS V14.01,2013-07-11 09:03:00,
2013-07-11 02:08:00,62.2,38.9,30.03,North,7,0.0,0.0,42,0.00,,---,0.00,VWS V14.01,2013-07-11 09:08:00,
2013-07-11 02:14:00,62.2,38.9,30.03,NNW,345,0.0,0.0,42,0.00,,---,0.00,VWS V14.01,2013-07-11 09:14:00,
2013-07-11 02:19:00,62.4,39.0,30.03,NNW,345,0.0,0.0,42,0.00,,---,0.00,VWS V14.01,2013-07-11 09:19:00,
2013-07-11 02:25:00,62.8,39.4,30.00,SW,217,0.0,0.0,42,0.00,,---,0.00,VWS V14.01,2013-07-11 09:25:00,
2013-07-11 02:30:00,63.0,39.5,30.00,SW,217,0.0,0.0,42,0.00,,---,0.00,VWS V14.01,2013-07-11 09:30:00,
2013-07-11 02:36:00,63.0,39.5,30.00,SW,217,0.0,0.0,42,0.00,,---,0.00,VWS V14.01,2013-07-11 09:36:00,
2013-07-11 02:41:00,63.0,39.5,30.00,SW,217,0.0,0.0,42,0.00,,---,0.00,VWS V14.01,2013-07-11 09:41:00,
2013-07-11 02:47:00,63.1,39.7,30.00,SW,217,0.0,0.0,42,0.00,,---,0.00,VWS V14.01,2013-07-11 09:47:00,
2013-07-11 02:53:00,63.1,39.7,30.00,SW,217,0.0,0.0,42,0.00,,---,0.00,VWS V14.01,2013-07-11 09:53:00,
2013-07-11 02:58:00,63.1,39.7,30.00,SW,217,0.0,0.0,42,0.00,,---,0.00,VWS V14.01,2013-07-11 09:58:00,
2013-07-11 03:04:00,63.5,40.0,30.00,SSE,147,0.0,0.0,42,0.00,,---,0.00,VWS V14.01,2013-07-11 10:04:00,
2013-07-11 03:09:00,63.5,40.9,30.00,SE,130,2.7,3.6,44,0.00,,---,0.00,VWS V14.01,2013-07-11 10:09:00,
2013-07-11 03:14:00,63.5,40.9,30.00,SE,130,0.0,0.0,44,0.00,,---,0.00,VWS V14.01,2013-07-11 10:14:00,
2013-07-11 03:20:00,63.7,41.1,30.00,SW,234,2.7,2.7,44,0.00,,---,0.00,VWS V14.01,2013-07-11 10:20:00,
2013-07-11 03:26:00,64.0,41.4,30.00,SW,234,3.1,3.1,44,0.00,,---,0.00,VWS V14.01,2013-07-11 10:26:00,
2013-07-11 03:32:00,64.6,42.8,30.00,SW,231,3.1,4.9,45,0.00,,---,0.00,VWS V14.01,2013-07-11 10:32:00,
2013-07-11 03:37:00,64.8,43.0,30.00,WSW,242,3.1,4.0,45,0.00,,---,0.00,VWS V14.01,2013-07-11 10:37:00,
2013-07-11 03:43:00,65.3,43.4,30.00,SSW,209,2.7,3.1,45,0.00,,---,0.00,VWS V14.01,2013-07-11 10:43:00,
2013-07-11 03:48:00,65.3,43.4,30.00,SW,217,2.2,2.7,45,0.00,,---,0.00,VWS V14.01,2013-07-11 10:48:00,
2013-07-11 03:54:00,65.5,43.6,30.00,SSW,192,0.0,0.0,45,0.00,,---,0.00,VWS V14.01,2013-07-11 10:54:00,
2013-07-11 04:01:00,65.5,44.5,30.00,SSW,199,6.3,7.2,46,0.00,,---,0.00,VWS V14.01,2013-07-11 11:01:00,
2013-07-11 04:07:00,65.5,45.3,30.00,SSW,208,3.6,4.0,48,0.00,,---,0.00,VWS V14.01,2013-07-11 11:07:00,
2013-07-11 04:13:00,65.5,45.3,30.00,SSW,200,4.0,4.0,48,0.00,,---,0.00,VWS V14.01,2013-07-11 11:13:00,
2013-07-11 04:19:00,65.5,45.3,30.00,SSW,209,0.0,0.0,48,0.00,,---,0.00,VWS V14.01,2013-07-11 11:19:00,
2013-07-11 04:24:00,65.5,45.3,30.00,SSW,209,0.0,2.2,48,0.00,,---,0.00,VWS V14.01,2013-07-11 11:24:00,
2013-07-11 04:30:00,65.5,45.3,30.00,ENE,71,2.2,3.1,48,0.00,,---,0.00,VWS V14.01,2013-07-11 11:30:00,
2013-07-11 04:36:00,65.5,45.3,30.03,NNE,14,3.1,3.1,48,0.00,,---,0.00,VWS V14.01,2013-07-11 11:36:00,
2013-07-11 04:42:00,65.3,44.3,30.03,North,353,3.6,3.6,46,0.00,,---,0.00,VWS V14.01,2013-07-11 11:42:00,
2013-07-11 08:18:00,70.5,42.3,30.03,North,353,3.1,3.6,36,0.00,,---,0.00,VWS V14.01,2013-07-11 15:18:00,
2013-07-11 08:23:00,70.9,42.6,30.03,WSW,241,3.1,3.1,36,0.00,,---,0.00,VWS V14.01,2013-07-11 15:23:00,
2013-07-11 08:29:00,71.2,42.9,30.03,SW,235,3.6,3.6,36,0.00,,---,0.00,VWS V14.01,2013-07-11 15:29:00,
2013-07-11 08:35:00,71.2,42.9,30.03,SW,235,5.4,6.3,36,0.00,,---,0.00,VWS V14.01,2013-07-11 15:35:00,
2013-07-11 08:40:00,71.1,42.8,30.06,South,181,7.6,8.7,36,0.00,,---,0.00,VWS V14.01,2013-07-11 15:40:00,
2013-07-11 08:46:00,69.8,42.7,30.06,SW,219,7.2,8.7,38,0.00,,---,0.00,VWS V14.01,2013-07-11 15:46:00,
2013-07-11 08:51:00,69.3,43.3,30.06,SSW,204,5.4,8.1,39,0.00,,---,0.00,VWS V14.01,2013-07-11 15:51:00,
2013-07-11 08:57:00,68.9,43.9,30.06,SSW,201,7.6,8.7,40,0.00,,---,0.00,VWS V14.01,2013-07-11 15:57:00,
2013-07-11 09:03:00,68.9,44.9,30.06,WSW,253,5.8,6.3,42,0.00,,---,0.00,VWS V14.01,2013-07-11 16:03:00,
2013-07-11 09:08:00,69.1,45.0,30.06,WSW,257,8.3,8.3,42,0.00,,---,0.00,VWS V14.01,2013-07-11 16:08:00,
2013-07-11 09:13:00,69.1,45.0,30.06,West,263,11.0,11.0,42,0.00,,---,0.00,VWS V14.01,2013-07-11 16:13:00,
2013-07-11 09:18:00,69.4,45.4,30.06,West,264,10.5,11.0,42,0.00,,---,0.00,VWS V14.01,2013-07-11 16:18:00,
2013-07-11 09:23:00,69.6,44.6,30.06,West,261,10.5,10.5,40,0.00,,---,0.00,VWS V14.01,2013-07-11 16:23:00,
2013-07-11 09:30:00,70.3,45.2,30.06,WSW,240,8.3,8.3,40,0.00,,---,0.00,VWS V14.01,2013-07-11 16:30:00,
2013-07-11 09:35:00,71.6,45.4,30.06,WNW,296,5.4,7.6,39,0.00,,---,0.00,VWS V14.01,2013-07-11 16:35:00,
2013-07-11 09:40:00,71.8,45.5,30.06,West,271,7.6,8.3,39,0.00,,---,0.00,VWS V14.01,2013-07-11 16:40:00,
2013-07-11 09:46:00,71.8,45.5,30.06,West,268,7.6,7.6,39,0.00,,---,0.00,VWS V14.01,2013-07-11 16:46:00,
2013-07-11 09:51:00,72.1,44.8,30.06,WSW,237,5.4,6.7,38,0.00,,---,0.00,VWS V14.01,2013-07-11 16:51:00,
2013-07-11 09:57:00,72.5,45.1,30.06,WSW,244,6.3,6.3,38,0.00,,---,0.00,VWS V14.01,2013-07-11 16:57:00,
2013-07-11 10:03:00,72.1,44.8,30.06,WSW,254,6.3,7.2,38,0.00,,---,0.00,VWS V14.01,2013-07-11 17:03:00,
2013-07-11 10:09:00,72.3,45.0,30.06,WSW,245,5.4,6.3,38,0.00,,---,0.00,VWS V14.01,2013-07-11 17:09:00,
2013-07-11 10:14:00,72.7,45.3,30.06,West,260,5.8,5.8,38,0.00,,---,0.00,VWS V14.01,2013-07-11 17:14:00,
2013-07-11 10:20:00,72.5,44.1,30.06,West,274,6.3,6.3,36,0.00,,---,0.00,VWS V14.01,2013-07-11 17:20:00,
2013-07-11 10:25:00,72.9,44.4,30.06,SW,224,5.4,8.1,36,0.00,,---,0.00,VWS V14.01,2013-07-11 17:25:00,
2013-07-11 10:30:00,73.4,44.8,30.06,SW,233,8.1,8.1,36,0.00,,---,0.00,VWS V14.01,2013-07-11 17:30:00,
2013-07-11 10:36:00,74.3,45.7,30.06,WSW,243,6.3,6.3,36,0.00,,---,0.00,VWS V14.01,2013-07-11 17:36:00,
2013-07-11 10:41:00,74.3,45.7,30.06,SW,235,5.8,7.6,36,0.00,,---,0.00,VWS V14.01,2013-07-11 17:41:00,
2013-07-11 10:47:00,74.3,44.5,30.06,WSW,254,4.0,7.2,34,0.00,,---,0.00,VWS V14.01,2013-07-11 17:47:00,
2013-07-11 10:53:00,74.1,44.4,30.06,WNW,293,5.8,6.3,34,0.00,,---,0.00,VWS V14.01,2013-07-11 17:53:00,
2013-07-11 10:59:00,74.1,44.4,30.06,West,278,8.3,8.3,34,0.00,,---,0.00,VWS V14.01,2013-07-11 17:59:00,
2013-07-11 11:05:00,74.3,44.5,30.06,West,267,7.6,8.3,34,0.00,,---,0.00,VWS V14.01,2013-07-11 18:05:00,
2013-07-11 11:11:00,74.8,46.1,30.06,WSW,253,8.1,8.1,36,0.00,,---,0.00,VWS V14.01,2013-07-11 18:11:00,
2013-07-11 11:17:00,74.8,46.1,30.06,WSW,239,5.8,10.5,36,0.00,,---,0.00,VWS V14.01,2013-07-11 18:17:00,
2013-07-11 11:23:00,75.2,45.3,30.06,West,268,5.4,8.7,34,0.00,,---,0.00,VWS V14.01,2013-07-11 18:23:00,
2013-07-11 11:28:00,75.7,45.8,30.06,WSW,250,5.4,8.1,34,0.00,,---,0.00,VWS V14.01,2013-07-11 18:28:00,
2013-07-11 11:34:00,76.3,46.3,30.06,West,275,7.2,8.7,34,0.00,,---,0.00,VWS V14.01,2013-07-11 18:34:00,
2013-07-11 11:39:00,76.1,46.1,30.06,West,275,7.6,8.7,34,0.00,,---,0.00,VWS V14.01,2013-07-11 18:39:00,
2013-07-11 11:45:00,76.1,46.1,30.06,WSW,246,6.3,6.3,34,0.00,,---,0.00,VWS V14.01,2013-07-11 18:45:00,
2013-07-11 11:51:00,76.6,46.6,30.06,SW,233,7.6,8.3,34,0.00,,---,0.00,VWS V14.01,2013-07-11 18:51:00,
2013-07-11 11:57:00,76.5,46.4,30.06,West,263,11.0,11.0,34,0.00,,---,0.00,VWS V14.01,2013-07-11 18:57:00,
2013-07-11 12:02:00,75.6,45.6,30.06,West,272,7.6,10.1,34,0.00,,---,0.00,VWS V14.01,2013-07-11 19:02:00,
2013-07-11 12:08:00,75.6,45.6,30.06,WNW,284,5.4,7.6,34,0.00,,---,0.00,VWS V14.01,2013-07-11 19:08:00,
2013-07-11 12:14:00,75.0,46.3,30.06,WSW,246,10.1,10.5,36,0.00,,---,0.00,VWS V14.01,2013-07-11 19:14:00,
2013-07-11 12:19:00,75.4,46.6,30.06,West,277,7.6,8.3,36,0.00,,---,0.00,VWS V14.01,2013-07-11 19:19:00,
2013-07-11 12:24:00,75.0,46.3,30.06,West,266,7.6,8.1,36,0.00,,---,0.00,VWS V14.01,2013-07-11 19:24:00,
2013-07-11 12:30:00,74.1,45.5,30.06,West,280,6.7,8.3,36,0.00,,---,0.00,VWS V14.01,2013-07-11 19:30:00,
2013-07-11 12:36:00,73.8,46.2,30.06,WSW,254,8.7,8.7,38,0.00,,---,0.00,VWS V14.01,2013-07-11 19:36:00,
2013-07-11 12:42:00,73.6,46.1,30.06,WNW,296,5.8,8.7,38,0.00,,---,0.00,VWS V14.01,2013-07-11 19:42:00,
2013-07-11 12:47:00,72.9,45.5,30.06,WNW,299,8.7,8.7,38,0.00,,---,0.00,VWS V14.01,2013-07-11 19:47:00,
2013-07-11 12:52:00,72.7,46.3,30.06,WNW,297,6.3,6.3,39,0.00,,---,0.00,VWS V14.01,2013-07-11 19:52:00,
2013-07-11 12:59:00,72.9,46.5,30.06,WSW,240,8.7,8.7,39,0.00,,---,0.00,VWS V14.01,2013-07-11 19:59:00,
2013-07-11 13:05:00,73.2,46.8,30.06,West,270,6.3,8.1,39,0.00,,---,0.00,VWS V14.01,2013-07-11 20:05:00,
2013-07-11 13:11:00,73.6,46.1,30.06,WNW,295,6.3,6.3,38,0.00,,---,0.00,VWS V14.01,2013-07-11 20:11:00,
2013-07-11 13:16:00,73.8,46.2,30.06,West,272,2.7,5.4,38,0.00,,---,0.00,VWS V14.01,2013-07-11 20:16:00,
2013-07-11 13:22:00,74.7,47.0,30.06,West,262,4.0,6.3,38,0.00,,---,0.00,VWS V14.01,2013-07-11 20:22:00,
2013-07-11 13:27:00,75.2,47.5,30.06,WNW,293,4.9,4.9,38,0.00,,---,0.00,VWS V14.01,2013-07-11 20:27:00,
2013-07-11 13:33:00,76.5,48.6,30.06,WSW,250,7.6,7.6,38,0.00,,---,0.00,VWS V14.01,2013-07-11 20:33:00,
2013-07-11 13:39:00,77.4,48.3,30.06,SW,231,8.1,8.3,36,0.00,,---,0.00,VWS V14.01,2013-07-11 20:39:00,
2013-07-11 13:45:00,78.4,48.2,30.06,WNW,300,7.6,9.2,34,0.00,,---,0.00,VWS V14.01,2013-07-11 20:45:00,
2013-07-11 13:51:00,77.9,46.5,30.06,SW,233,8.1,8.7,33,0.00,,---,0.00,VWS V14.01,2013-07-11 20:51:00,
2013-07-11 13:56:00,78.1,46.7,30.06,WSW,250,11.9,11.9,33,0.00,,---,0.00,VWS V14.01,2013-07-11 20:56:00,
2013-07-11 14:02:00,78.3,46.8,30.06,West,270,8.1,10.5,33,0.00,,---,0.00,VWS V14.01,2013-07-11 21:02:00,
2013-07-11 14:07:00,78.1,46.7,30.03,WNW,303,3.6,8.1,33,0.00,,---,0.00,VWS V14.01,2013-07-11 21:07:00,
2013-07-11 14:12:00,78.3,45.6,30.03,West,262,8.1,10.1,32,0.00,,---,0.00,VWS V14.01,2013-07-11 21:12:00,
2013-07-11 14:18:00,79.3,46.5,30.03,WSW,240,8.7,10.1,32,0.00,,---,0.00,VWS V14.01,2013-07-11 21:18:00,
2013-07-11 14:23:00,79.9,47.0,30.03,WNW,290,8.1,10.1,32,0.00,,---,0.00,VWS V14.01,2013-07-11 21:23:00,
2013-07-11 14:29:00,79.3,46.5,30.03,WSW,246,8.3,10.1,32,0.00,,---,0.00,VWS V14.01,2013-07-11 21:29:00,
2013-07-11 14:35:00,79.9,47.0,30.03,West,261,5.8,8.7,32,0.00,,---,0.00,VWS V14.01,2013-07-11 21:35:00,
2013-07-11 14:40:00,80.4,47.5,30.03,NW,307,5.8,5.8,32,0.00,,---,0.00,VWS V14.01,2013-07-11 21:40:00,
2013-07-11 14:46:00,79.7,46.8,30.03,WSW,249,12.3,12.3,32,0.00,,---,0.00,VWS V14.01,2013-07-11 21:46:00,
2013-07-11 14:53:00,79.5,46.7,30.03,WSW,254,10.5,11.9,32,0.00,,---,0.00,VWS V14.01,2013-07-11 21:53:00,
2013-07-11 14:59:00,79.3,46.5,30.03,West,260,11.0,12.8,32,0.00,,---,0.00,VWS V14.01,2013-07-11 21:59:00,
2013-07-11 15:04:00,78.4,45.8,30.03,WNW,285,8.3,8.3,32,0.00,,---,0.00,VWS V14.01,2013-07-11 22:04:00,
2013-07-11 15:09:00,77.7,45.1,30.03,West,269,4.0,6.3,32,0.00,,---,0.00,VWS V14.01,2013-07-11 22:09:00,
2013-07-11 15:15:00,77.5,45.0,30.03,West,260,8.3,10.5,32,0.00,,---,0.00,VWS V14.01,2013-07-11 22:15:00,
2013-07-11 15:21:00,77.7,45.1,30.03,SW,233,7.6,8.1,32,0.00,,---,0.00,VWS V14.01,2013-07-11 22:21:00,
2013-07-11 15:27:00,77.5,45.0,30.03,SW,226,7.6,11.0,32,0.00,,---,0.00,VWS V14.01,2013-07-11 22:27:00,
2013-07-11 15:32:00,77.9,45.3,30.03,West,266,6.7,8.3,32,0.00,,---,0.00,VWS V14.01,2013-07-11 22:32:00,
2013-07-11 15:38:00,79.2,46.4,30.03,West,271,6.3,10.5,32,0.00,,---,0.00,VWS V14.01,2013-07-11 22:38:00,
2013-07-11 15:44:00,77.5,45.0,30.03,West,270,7.6,8.1,32,0.00,,---,0.00,VWS V14.01,2013-07-11 22:44:00,
2013-07-11 15:49:00,77.0,44.5,30.03,WNW,290,6.3,8.7,32,0.00,,---,0.00,VWS V14.01,2013-07-11 22:49:00,
2013-07-11 15:55:00,76.6,45.4,30.03,WNW,283,8.1,8.7,33,0.00,,---,0.00,VWS V14.01,2013-07-11 22:55:00,
2013-07-11 16:00:00,76.1,44.9,30.03,NW,305,6.3,8.1,33,0.00,,---,0.00,VWS V14.01,2013-07-11 23:00:00,
2013-07-11 16:06:00,76.3,45.1,30.03,West,274,8.3,8.3,33,0.00,,---,0.00,VWS V14.01,2013-07-11 23:06:00,
2013-07-11 16:11:00,76.1,44.9,30.03,West,265,11.0,11.0,33,0.00,,---,0.00,VWS V14.01,2013-07-11 23:11:00,
2013-07-11 16:17:00,75.7,44.6,30.03,WNW,296,6.3,8.1,33,0.00,,---,0.00,VWS V14.01,2013-07-11 23:17:00,
2013-07-11 16:23:00,75.9,44.8,30.03,WSW,256,4.9,7.6,33,0.00,,---,0.00,VWS V14.01,2013-07-11 23:23:00,
2013-07-11 16:28:00,76.5,45.2,30.03,WNW,298,5.4,7.2,33,0.00,,---,0.00,VWS V14.01,2013-07-11 23:28:00,
2013-07-11 16:34:00,77.4,46.0,30.03,WSW,251,9.6,10.5,33,0.00,,---,0.00,VWS V14.01,2013-07-11 23:34:00,
2013-07-11 16:40:00,77.2,45.9,30.00,West,269,6.3,6.3,33,0.00,,---,0.00,VWS V14.01,2013-07-11 23:40:00,
2013-07-11 16:45:00,77.0,45.7,30.00,West,279,6.3,8.3,33,0.00,,---,0.00,VWS V14.01,2013-07-11 23:45:00,
2013-07-11 16:50:00,77.7,46.3,30.00,WSW,252,8.3,10.1,33,0.00,,---,0.00,VWS V14.01,2013-07-11 23:50:00,
2013-07-11 16:56:00,78.3,46.8,30.00,WSW,238,6.3,8.3,33,0.00,,---,0.00,VWS V14.01,2013-07-11 23:56:00,
2013-07-11 17:01:00,78.1,45.4,30.00,West,265,5.4,5.4,32,0.00,,---,0.00,VWS V14.01,2013-07-12 00:01:00,
2013-07-11 17:07:00,77.9,45.3,30.00,WSW,258,8.7,8.7,32,0.00,,---,0.00,VWS V14.01,2013-07-12 00:07:00,
2013-07-11 17:13:00,77.5,45.0,30.00,West,269,3.1,5.8,32,0.00,,---,0.00,VWS V14.01,2013-07-12 00:13:00,
2013-07-11 17:18:00,78.4,45.8,30.00,SW,233,8.3,8.3,32,0.00,,---,0.00,VWS V14.01,2013-07-12 00:18:00,
2013-07-11 17:23:00,79.0,46.2,30.00,West,266,5.4,7.6,32,0.00,,---,0.00,VWS V14.01,2013-07-12 00:23:00,
2013-07-11 17:28:00,78.4,45.8,30.00,NW,325,5.8,6.3,32,0.00,,---,0.00,VWS V14.01,2013-07-12 00:28:00,
2013-07-11 17:34:00,78.1,45.4,30.00,West,271,4.0,4.9,32,0.00,,---,0.00,VWS V14.01,2013-07-12 00:34:00,
2013-07-11 17:40:00,77.5,45.0,30.00,West,281,7.6,10.5,32,0.00,,---,0.00,VWS V14.01,2013-07-12 00:40:00,
2013-07-11 17:45:00,78.4,45.8,30.00,West,272,8.7,8.7,32,0.00,,---,0.00,VWS V14.01,2013-07-12 00:45:00,
2013-07-11 17:50:00,79.2,46.4,30.00,West,269,5.8,7.6,32,0.00,,---,0.00,VWS V14.01,2013-07-12 00:50:00,
2013-07-11 17:55:00,78.6,45.9,30.00,SW,230,5.8,10.1,32,0.00,,---,0.00,VWS V14.01,2013-07-12 00:55:00,
2013-07-11 18:01:00,77.5,45.0,30.00,West,272,6.3,7.6,32,0.00,,---,0.00,VWS V14.01,2013-07-12 01:01:00,
2013-07-11 18:07:00,77.9,45.3,30.00,West,274,8.3,8.7,32,0.00,,---,0.00,VWS V14.01,2013-07-12 01:07:00,
2013-07-11 18:13:00,78.3,45.6,30.00,WSW,258,8.1,8.7,32,0.00,,---,0.00,VWS V14.01,2013-07-12 01:13:00,
2013-07-11 18:18:00,79.2,46.4,30.00,SW,224,5.8,7.6,32,0.00,,---,0.00,VWS V14.01,2013-07-12 01:18:00,
2013-07-11 18:25:00,79.2,46.4,30.00,NW,309,6.3,6.3,32,0.00,,---,0.00,VWS V14.01,2013-07-12 01:25:00,
2013-07-11 18:30:00,78.4,45.8,30.00,WNW,291,8.1,9.2,32,0.00,,---,0.00,VWS V14.01,2013-07-12 01:30:00,
2013-07-11 18:36:00,77.7,45.1,30.00,West,270,4.0,7.2,32,0.00,,---,0.00,VWS V14.01,2013-07-12 01:36:00,
2013-07-11 18:42:00,77.9,45.3,30.00,WNW,285,5.8,6.3,32,0.00,,---,0.00,VWS V14.01,2013-07-12 01:42:00,
2013-07-11 18:47:00,78.3,45.6,30.00,SW,216,4.9,5.8,32,0.00,,---,0.00,VWS V14.01,2013-07-12 01:47:00,
2013-07-11 18:54:00,78.3,45.6,30.00,West,259,7.2,8.3,32,0.00,,---,0.00,VWS V14.01,2013-07-12 01:54:00,
2013-07-11 18:59:00,77.5,45.0,30.00,WSW,252,5.8,6.3,32,0.00,,---,0.00,VWS V14.01,2013-07-12 01:59:00,
2013-07-11 19:06:00,77.9,45.3,30.00,West,263,6.3,6.3,32,0.00,,---,0.00,VWS V14.01,2013-07-12 02:06:00,
2013-07-11 19:11:00,78.3,45.6,30.00,SW,215,3.1,5.4,32,0.00,,---,0.00,VWS V14.01,2013-07-12 02:11:00,
2013-07-11 19:17:00,78.3,45.6,30.00,SW,232,5.8,6.7,32,0.00,,---,0.00,VWS V14.01,2013-07-12 02:17:00,
2013-07-11 19:22:00,77.0,44.5,30.00,West,264,7.2,7.2,32,0.00,,---,0.00,VWS V14.01,2013-07-12 02:22:00,
2013-07-11 19:27:00,76.8,44.3,30.00,WSW,243,5.4,7.2,32,0.00,,---,0.00,VWS V14.01,2013-07-12 02:27:00,
2013-07-11 19:32:00,77.4,44.8,30.00,West,264,6.3,7.6,32,0.00,,---,0.00,VWS V14.01,2013-07-12 02:32:00,
2013-07-11 19:38:00,77.2,44.7,30.00,WSW,251,5.8,7.6,32,0.00,,---,0.00,VWS V14.01,2013-07-12 02:38:00,
2013-07-11 19:43:00,76.1,44.9,30.00,WSW,244,5.8,8.1,33,0.00,,---,0.00,VWS V14.01,2013-07-12 02:43:00,
2013-07-11 19:49:00,75.0,45.2,30.00,WSW,248,6.3,6.7,34,0.00,,---,0.00,VWS V14.01,2013-07-12 02:49:00,
2013-07-11 19:54:00,74.1,44.4,30.00,WSW,254,5.4,6.3,34,0.00,,---,0.00,VWS V14.01,2013-07-12 02:54:00,
2013-07-11 20:00:00,73.0,44.5,30.00,WSW,246,6.3,6.3,36,0.00,,---,0.00,VWS V14.01,2013-07-12 03:00:00,
2013-07-11 20:06:00,72.7,45.3,30.00,WSW,252,4.9,6.3,38,0.00,,---,0.00,VWS V14.01,2013-07-12 03:06:00,
2013-07-11 20:12:00,72.9,46.5,30.00,West,263,5.4,5.4,39,0.00,,---,0.00,VWS V14.01,2013-07-12 03:12:00,
2013-07-11 20:17:00,72.1,45.8,30.00,West,272,3.6,4.9,39,0.00,,---,0.00,VWS V14.01,2013-07-12 03:17:00,
2013-07-11 20:23:00,71.4,46.2,30.00,West,265,3.1,4.5,40,0.00,,---,0.00,VWS V14.01,2013-07-12 03:23:00,
2013-07-11 20:28:00,71.2,47.0,30.00,West,265,3.1,3.1,42,0.00,,---,0.00,VWS V14.01,2013-07-12 03:28:00,
2013-07-11 20:34:00,70.9,47.6,30.00,West,272,0.0,2.2,44,0.00,,---,0.00,VWS V14.01,2013-07-12 03:34:00,
2013-07-11 20:40:00,71.2,47.9,30.00,West,272,0.0,0.0,44,0.00,,---,0.00,VWS V14.01,2013-07-12 03:40:00,
2013-07-11 20:46:00,71.4,48.1,30.00,West,272,0.0,0.0,44,0.00,,---,0.00,VWS V14.01,2013-07-12 03:46:00,
2013-07-11 20:52:00,71.2,48.8,30.00,WSW,258,0.0,0.0,45,0.00,,---,0.00,VWS V14.01,2013-07-12 03:52:00,
2013-07-11 20:57:00,71.1,47.8,30.00,SE,126,4.0,4.9,44,0.00,,---,0.00,VWS V14.01,2013-07-12 03:57:00,
2013-07-11 21:01:00,71.1,47.8,30.00,SE,128,4.9,5.4,44,0.00,,---,0.00,VWS V14.01,2013-07-12 04:01:00,
2013-07-11 21:02:00,71.1,47.8,30.00,SE,133,5.4,5.8,44,0.00,,---,0.00,VWS V14.01,2013-07-12 04:02:00,
2013-07-11 21:06:00,70.9,48.5,30.00,SSE,149,5.4,5.8,45,0.00,,---,0.00,VWS V14.01,2013-07-12 04:06:00,
2013-07-11 21:07:00,70.9,48.5,30.00,SE,146,5.4,5.4,45,0.00,,---,0.00,VWS V14.01,2013-07-12 04:07:00,
2013-07-11 21:10:00,70.7,48.3,30.00,SSE,157,4.0,4.9,45,0.00,,---,0.00,VWS V14.01,2013-07-12 04:10:00,
2013-07-11 21:16:00,70.5,48.2,30.00,South,187,3.1,3.6,45,0.00,,---,0.00,VWS V14.01,2013-07-12 04:16:00,
2013-07-11 21:22:00,70.3,48.9,30.03,SSE,166,3.6,4.0,46,0.00,,---,0.00,VWS V14.01,2013-07-12 04:22:00,
2013-07-11 21:27:00,70.2,48.7,30.03,SSE,152,4.9,5.4,46,0.00,,---,0.00,VWS V14.01,2013-07-12 04:27:00,
2013-07-11 21:33:00,70.0,49.4,30.03,SSW,204,4.9,5.8,48,0.00,,---,0.00,VWS V14.01,2013-07-12 04:33:00,
2013-07-11 21:38:00,69.8,49.2,30.03,SW,221,3.6,4.0,48,0.00,,---,0.00,VWS V14.01,2013-07-12 04:38:00,
2013-07-11 21:43:00,70.2,49.6,30.03,SW,231,3.6,4.0,48,0.00,,---,0.00,VWS V14.01,2013-07-12 04:43:00,
2013-07-11 21:49:00,70.3,49.7,30.03,SW,231,2.2,2.7,48,0.00,,---,0.00,VWS V14.01,2013-07-12 04:49:00,
2013-07-11 21:55:00,70.3,49.7,30.03,SW,231,2.2,2.2,48,0.00,,---,0.00,VWS V14.01,2013-07-12 04:55:00,
2013-07-11 22:01:00,70.2,48.7,30.03,SW,231,0.0,0.0,46,0.00,,---,0.00,VWS V14.01,2013-07-12 05:01:00,
2013-07-11 22:06:00,70.2,48.7,30.03,SW,231,0.0,0.0,46,0.00,,---,0.00,VWS V14.01,2013-07-12 05:06:00,
2013-07-11 22:12:00,69.6,48.2,30.03,West,272,0.0,0.0,46,0.00,,---,0.00,VWS V14.01,2013-07-12 05:12:00,
2013-07-11 22:17:00,69.1,48.6,30.03,West,272,0.0,0.0,48,0.00,,---,0.00,VWS V14.01,2013-07-12 05:17:00,
2013-07-11 22:23:00,68.5,48.1,30.03,West,272,0.0,0.0,48,0.00,,---,0.00,VWS V14.01,2013-07-12 05:23:00,
2013-07-11 22:28:00,68.5,48.1,30.03,West,272,0.0,0.0,48,0.00,,---,0.00,VWS V14.01,2013-07-12 05:28:00,
2013-07-11 22:34:00,68.4,47.9,30.03,West,272,0.0,0.0,48,0.00,,---,0.00,VWS V14.01,2013-07-12 05:34:00,
2013-07-11 22:40:00,68.0,47.6,30.03,West,272,0.0,0.0,48,0.00,,---,0.00,VWS V14.01,2013-07-12 05:40:00,
2013-07-11 22:45:00,67.6,48.1,30.03,West,272,0.0,0.0,50,0.00,,---,0.00,VWS V14.01,2013-07-12 05:45:00,
2013-07-11 22:51:00,67.5,47.9,30.03,West,272,0.0,0.0,50,0.00,,---,0.00,VWS V14.01,2013-07-12 05:51:00,
2013-07-11 22:57:00,67.1,47.6,30.03,West,272,0.0,0.0,50,0.00,,---,0.00,VWS V14.01,2013-07-12 05:57:00,
2013-07-11 23:02:00,66.7,47.3,30.03,West,272,0.0,0.0,50,0.00,,---,0.00,VWS V14.01,2013-07-12 06:02:00,
2013-07-11 23:08:00,66.6,47.1,30.03,West,272,0.0,0.0,50,0.00,,---,0.00,VWS V14.01,2013-07-12 06:08:00,
2013-07-11 23:13:00,66.4,46.9,30.03,West,272,0.0,0.0,50,0.00,,---,0.00,VWS V14.01,2013-07-12 06:13:00,
2013-07-11 23:19:00,66.2,46.8,30.03,West,272,0.0,0.0,50,0.00,,---,0.00,VWS V14.01,2013-07-12 06:19:00,
2013-07-11 23:24:00,66.2,46.8,30.03,ESE,109,0.0,0.0,50,0.00,,---,0.00,VWS V14.01,2013-07-12 06:24:00,
2013-07-11 23:29:00,65.8,46.4,30.03,ESE,109,0.0,0.0,50,0.00,,---,0.00,VWS V14.01,2013-07-12 06:29:00,
2013-07-11 23:34:00,65.8,46.4,30.03,SW,219,0.0,0.0,50,0.00,,---,0.00,VWS V14.01,2013-07-12 06:34:00,
2013-07-11 23:39:00,65.7,47.1,30.03,SW,219,0.0,0.0,51,0.00,,---,0.00,VWS V14.01,2013-07-12 06:39:00,
2013-07-11 23:44:00,65.5,46.9,30.03,SE,125,0.0,0.0,51,0.00,,---,0.00,VWS V14.01,2013-07-12 06:44:00,
2013-07-11 23:50:00,65.3,46.7,30.03,SE,125,0.0,0.0,51,0.00,,---,0.00,VWS V14.01,2013-07-12 06:50:00,
2013-07-11 23:55:00,65.1,46.6,30.03,SSE,166,0.0,0.0,51,0.00,,---,0.00,VWS V14.01,2013-07-12 06:55:00,